DMSP 5D-2 F13 DEB, 40511

Orbit data source: Space-Track

DMSP 5D-2 F13 DEB, 40511 is space debris in SSO originally from a launch on Fri, 24 Mar 1995 UTC launched from the Air Force Western Test Range (AFWTR). Debris objects in space refer to the collection of defunct objects orbiting the Earth. Examples of debris include non-operational satellites, rocket bodies, and fragments generated from explosions, collisions, or faulty payload assembly.

Loading next visibility...
Identifier
40511, 1995-015CX
Orbit
SSO
Country
Flag of USUS
Related business
Manufacturer
Unknown
Mission
Spacecraft
Bus & Motor
Unknown
Mass
Unknown
Launch date (UTC)
1995-03-24 (31 years ago)
Launch vehicle
Unknown
Launch site
Air Force Western Test Range (AFWTR)
Object type
Payload
Rocket body
Debris
Shape & HBR
Unknown shape, 0.1 m
Radar Cross Section
Small (<0.1 m²)

Expand to show TLE details & history
Last TLE update: 2 days ago

TLE from 2 days ago
0 DMSP 5D-2 F13 DEB
1 40511U 95015CX  25296.37632094  .00013283  00000-0  38453-2 0  9991
2 40511  98.7730 340.2171 0015628 173.6251 186.5140 14.44522831548558
Epoch: 2025-10-23T09:01Z
TLE epoch observation values (Epoch: 2025-10-23T09:01:54.129Z)
Latitude
-0.00005°
Longitude
172.70511°
Altitude
757.6 km
Speed
7.47 km/s
True Right ascension
22h 40m 52s
True Declination
0° 00' 00"
Sunlit
Object was in full shadow at epoch
Visualization orbit readout
Latitude
Unknown
Longitude
Unknown
Altitude
Unknown
Speed
Unknown
Apparent Right ascension
Unknown
Apparent Declination
Unknown
Sunlit
N/A
Visualization observer readout
Local Sidereal Time
15:00:07
Azimuth
Unknown
Elevation
Unknown
Doppler factor
Unknown
Orbital elements
Apogee altitude
751.848 km
Perigee altitude
729.598 km
Semi-major axis
7,118.86 km
Eccentricity
0.00156
Inclination
98.773°
RAAN
340.2171°
Arg. of periapsis
173.6251°
True anomaly
186.49372°
Mean anomaly
186.514°
Eccentric anomaly
186.50386°
Mean motion
3.6135 °/min
Orbital period
99.63 mins
BSTAR
0.0038453
Loading maneuver chart data...
Computing Atmospheric mass density...

Documentation

Showing up to 5 results
|